Retour au catalogue

FOX-1

ActifRadio amateurLEO
NORAD 40967·PAYLOAD·🇺🇸 United States

Lancé Oct 8, 2015 depuis Vandenberg Space Force Base

Loading…

Prochains Passages (prochaines 24 heures)

TLE

FraisSource: Space-Track

Époque: Sep 13, 2026, 11:25 UTC

1 40967U 15058D   26256.47575324  .00001376  00000-0  12992-3 0  9996
2 40967  64.7758   4.5067 0138042  23.5236 337.2107 14.91385543126731

Suivez FOX-1 en temps réel avec AllMySat

Download on the App Store